This demonstration page uses our WeatherBlox Daily Observations layout. Learn more.

Left ArrowRight Arrow

39.51506, -84.39828

Hourly Observations for February 6, 2019

Temp ( °F °C ) Dew Point ( °F °C ) Humidity (%) Winds ( mph kmh ) Pressure ( in mb ) Visibility ( mi km ) Precip ( " mm )
12:15 am 00:15 Cloudy with Rain 40 4.2 39 4 99 99 NE 3 6 30.05 1018 3 4 0.02 0.51
12:35 am 00:35 Cloudy with Light Rain 40 4.3 39 4.1 99 99 NNE 3 6 30.04 1017 2 3 0.03 0.76
12:55 am 00:55 Cloudy with Light Rain 40 4.5 40 4.3 99 99 NNE 5 7 30.03 1017 3 5 0.03 0.76
1:15 am 01:15 Cloudy with Light Rain 40 4.4 40 4.3 99 99 Calm 30.02 1017 3 4 0.00 0.00
1:35 am 01:35 Cloudy with Mist and Fog 40 4.5 40 4.4 99 99 NNE 3 6 30.01 1016 3 4 0.01 0.25
1:55 am 01:55 Cloudy with Mist and Fog 40 4.6 40 4.5 99 99 Calm 29.99 1016 3 4 0.01 0.25
2:15 am 02:15 Cloudy with Light Rain 40 4.6 40 4.5 99 99 Calm 29.98 1015 2 3 0.00 0.00
2:35 am 02:35 Cloudy with Mist and Fog 41 4.8 40 4.7 99 99 NE 3 6 29.98 1015 2 3 0.00 0.00
2:55 am 02:55 Cloudy with Light Rain 41 5 41 4.8 99 99 Calm 29.97 1015 3 4 0.00 0.00
3:15 am 03:15 Cloudy with Light Rain 41 5.1 41 5 99 99 N 5 7 29.96 1015 2 3 0.01 0.25
3:35 am 03:35 Cloudy with Light Rain 42 5.7 42 5.6 99 99 Calm 29.96 1015 2 3 0.04 1.02
3:55 am 03:55 Cloudy with Nearby Thunderstorms 44 6.8 44 6.7 99 99 Calm 29.95 1014 2 3 0.12 3.05
4:15 am 04:15 Cloudy with Mist and Fog 44 6.6 44 6.5 99 99 Calm 29.94 1014 1 2 0.05 1.27
4:35 am 04:35 Cloudy with Mist and Fog 43 6.1 43 6 99 99 Calm 29.94 1014 1 2 0.05 1.27
4:55 am 04:55 Cloudy with Light Rain 43 6.3 43 6.2 99 99 Calm 29.92 1013 2 3 0.05 1.27
5:15 am 05:15 Cloudy with Mist and Fog 43 6.1 43 6 99 99 Calm 29.92 1013 3 5 0.00 0.00
5:35 am 05:35 Cloudy with Nearby Thunderstorms 43 6.2 43 6.1 99 99 Calm 29.92 1013 4 6 0.00 0.00
5:55 am 05:55 Cloudy with Mist and Fog 44 6.4 43 6.3 99 99 Calm 29.91 1013 1 2 0.00 0.00
6:15 am 06:15 Cloudy with Nearby Thunderstorms 49 9.6 49 9.6 100 100 NNW 10 17 29.91 1013 4 6 0.00 0.00
6:35 am 06:35 Cloudy with Strong Thunderstorms 50 10.2 50 10.1 99 99 N 5 7 29.91 1013 2 3 0.30 7.62
6:55 am 06:55 Cloudy with Mist and Fog 50 9.8 49 9.7 99 99 NNE 6 9 29.89 1012 2 3 0.51 12.95
7:15 am 07:15 Cloudy with Heavy Rain 50 10.1 50 10 99 99 Calm 29.91 1013 1 2 0.36 9.14
7:35 am 07:35 Cloudy with Rain 50 9.9 50 9.8 99 99 Calm 29.90 1012 1 1 0.40 10.16
7:55 am 07:55 Cloudy with Light Rain 49 9.5 49 9.4 99 99 SSW 3 6 29.89 1012 0 0 0.43 10.92
8:15 am 08:15 Cloudy with Rain 49 9.3 49 9.2 99 99 Calm 29.88 1012 0 0 0.04 1.02
8:35 am 08:35 Cloudy with Light Rain 49 9.3 49 9.2 99 99 NNW 3 6 29.88 1012 0 0 0.05 1.27
8:55 am 08:55 Cloudy with Rain 49 9.2 48 9.1 99 99 NNW 3 6 29.88 1012 0 0 0.06 1.52
9:15 am 09:15 Cloudy with Strong Thunderstorms 49 9.7 49 9.6 99 99 Calm 29.88 1012 1 1 0.07 1.78
9:35 am 09:35 Cloudy with Heavy Rain 50 10 50 9.9 99 99 WSW 5 7 29.91 1013 2 2 0.16 4.06
9:55 am 09:55 Cloudy with Heavy Rain 51 10.6 51 10.5 99 99 Calm 29.91 1013 1 1 0.25 6.35
10:15 am 10:15 Cloudy with Rain 50 10.1 50 10.1 100 100 Calm 29.89 1012 1 1 0.04 1.02
10:35 am 10:35 Cloudy with Light Rain 51 10.6 51 10.6 100 100 E 5 7 29.88 1012 1 1 0.09 2.29
10:55 am 10:55 Cloudy with Light Rain 51 10.5 51 10.4 99 99 Calm 29.88 1012 0 0 0.10 2.54
11:15 am 11:15 Cloudy with Light Rain 52 11.3 52 11.2 99 99 NW 3 6 29.89 1012 1 1 0.00 0.00
11:35 am 11:35 Cloudy with Mist and Fog 53 11.9 53 11.9 100 100 W 3 6 29.90 1013 1 1 0.00 0.00
11:55 am 11:55 Cloudy with Light Rain 54 12.1 54 12 99 99 SW 5 7 29.91 1013 1 2 0.01 0.25
12:15 pm 12:15 Cloudy with Light Rain 55 12.5 55 12.5 100 100 Calm 29.90 1013 2 3 0.01 0.25
12:35 pm 12:35 Mostly Cloudy with Light Rain 55 12.9 55 12.9 100 100 Calm 29.87 1012 3 4 0.01 0.25
12:55 pm 12:55 Cloudy with Mist and Fog 56 13.2 56 13.2 100 100 SW 5 7 29.87 1012 3 4 0.01 0.25
1:15 pm 13:15 Cloudy with Mist and Fog 56 13.3 56 13.2 99 99 SSW 5 7 29.88 1012 2 2 0.00 0.00
1:35 pm 13:35 Cloudy 57 14 57 13.9 99 99 W 7 11 29.88 1012 10 16 0.00 0.00
1:55 pm 13:55 Cloudy 57 14.1 57 13.7 97 97 W 6 9 29.87 1011 10 16 0.00 0.00
2:15 pm 14:15 Mostly Cloudy 58 14.5 57 13.7 95 95 WNW 5 7 29.88 1012 10 16 0.00 0.00
2:35 pm 14:35 Partly Cloudy 58 14.7 56 13.5 93 93 SSW 5 7 29.87 1011 10 16 0.00 0.00
2:55 pm 14:55 Cloudy 59 14.9 56 13.4 91 91 WSW 6 9 29.89 1012 10 16 0.00 0.00
3:15 pm 15:15 Cloudy 59 14.9 56 13.1 89 89 SW 3 6 29.88 1012 10 16 0.00 0.00
3:35 pm 15:35 Mostly Cloudy 59 15.1 56 13.1 88 88 Calm 29.89 1012 10 16 0.00 0.00
3:55 pm 15:55 Mostly Cloudy 59 15.1 56 13.2 89 89 W 6 9 29.89 1012 10 16 0.00 0.00
4:15 pm 16:15 Partly Cloudy 59 14.9 55 13 89 89 WSW 3 6 29.90 1012 10 16 0.00 0.00
4:35 pm 16:35 Partly Cloudy 58 14.6 55 12.9 90 90 WNW 6 9 29.92 1013 10 16 0.00 0.00
4:55 pm 16:55 Partly Cloudy 57 13.8 55 12.5 92 92 WNW 5 7 29.91 1013 10 16 0.00 0.00
5:15 pm 17:15 Sunny 56 13.1 54 12.3 95 95 Calm 29.91 1013 10 16 0.00 0.00
5:35 pm 17:35 Sunny 55 13 54 12.2 95 95 Calm 29.92 1013 10 16 0.00 0.00
5:55 pm 17:55 Sunny 55 12.7 54 12.2 97 97 Calm 29.92 1013 10 16 0.00 0.00
6:15 pm 18:15 Cloudy with Fog 53 11.6 52 11.3 98 98 Calm 29.93 1014 5 8 0.00 0.00
6:35 pm 18:35 Cloudy with Mist and Fog 51 10.6 51 10.3 98 98 NNW 3 6 29.95 1014 1 1 0.00 0.00
7:15 pm 19:15 Cloudy with Mist and Fog 52 11.2 52 11.1 99 99 NNW 5 7 29.97 1015 7 11 0.00 0.00
7:35 pm 19:35 Mostly Cloudy 53 11.5 52 11.2 98 98 Calm 29.96 1014 10 16 0.00 0.00
7:55 pm 19:55 Clear 52 11 51 10.7 98 98 E 3 6 29.96 1014 7 11 0.00 0.00
8:15 pm 20:15 Partly Cloudy with Mist and Fog 49 9.7 49 9.3 97 97 Calm 29.96 1015 4 6 0.00 0.00
8:35 pm 20:35 Mostly Cloudy with Fog 49 9.2 48 9 99 99 N 3 6 29.97 1015 1 1 0.00 0.00
8:55 pm 20:55 Cloudy with Mist and Fog 49 9.7 49 9.5 99 99 Calm 29.97 1015 3 5 0.00 0.00
9:15 pm 21:15 Cloudy with Fog 49 9.2 48 9.1 99 99 N 3 6 29.99 1016 1 1 0.00 0.00
9:35 pm 21:35 Cloudy with Mist and Fog 47 8.6 47 8.5 99 99 N 5 7 29.99 1016 3 4 0.00 0.00
9:55 pm 21:55 Cloudy with Mist and Fog 48 8.7 47 8.6 99 99 N 5 7 29.99 1016 5 8 0.00 0.00
10:15 pm 22:15 Cloudy with Light Rain 48 8.8 47 8.6 99 99 Calm 30.00 1016 5 8 0.00 0.00
10:35 pm 22:35 Cloudy with Light Rain 49 9.4 49 9.3 99 99 ENE 3 6 30.00 1016 3 4 0.00 0.00
10:55 pm 22:55 Cloudy with Light Rain 50 9.8 49 9.7 99 99 NNE 5 7 29.99 1016 3 5 0.01 0.25
11:15 pm 23:15 Cloudy with Light Rain 49 9.6 49 9.5 99 99 NNE 3 6 29.98 1015 3 5 0.00 0.00
11:35 pm 23:35 Cloudy with Light Rain 49 9.6 49 9.4 99 99 N 3 6 29.99 1016 4 6 0.00 0.00
11:55 pm 23:55 Cloudy with Light Rain 49 9.4 49 9.3 99 99 NNE 3 6 29.99 1016 3 4 0.01 0.25

Powered by AerisWeather